User: anonymous   Login
Location: Unspecified
(0.0000°N, 0.0000°E)
Time: 19:02:56
(UTC+00:00)
Language:

STARLINK-2479 - Orbit

View from above orbital plane
View from above orbital plane
View from above satellite
View from above satellite

Ground track
Ground track

The orbit is defined by the following mean orbital elements,

1 48136U          26145.47346742 +.00000000 +00000-0 +38849-4 0 00006
2 48136  53.1589 168.4157 0001200  80.4430 279.6707 15.31701767    05
Epoch (UTC): 25 May 2026 11:21:47
Eccentricity: 0.0001200
inclination: 53.1589°
perigee height: 470 km
apogee height: 472 km
right ascension of ascending node: 168.4157°
argument of perigee: 80.4430°
revolutions per day: 15.31701767
mean anomaly at epoch: 279.6707°

The dashed part of the orbit path shows where the satellite is in the earth's shadow,  

DLR